N2RF KASH-

Flight info

Callsign N2RF
Flight time N/A
Altitude VFR/065
Route
Aircraft

Departure

Time 2026-04-26 22:12
Airport Nashua Airport / Boire Field (KASH)

Arrival

Time N/A
Airport -
Time Latitude Longitude Altitude Speed Heading
2026-04-26 21:56 42.78178 -71.51751 200 ft 0 kts 47°
2026-04-26 21:56 42.78183 -71.51747 200 ft 4 kts 13°
2026-04-26 21:57 42.78180 -71.51773 205 ft 6 kts 149°
2026-04-26 21:57 42.78184 -71.51735 207 ft 4 kts 93°
2026-04-26 21:57 42.78169 -71.51725 209 ft 0 kts 207°
2026-04-26 22:03 42.78157 -71.51724 203 ft 7 kts 152°
2026-04-26 22:03 42.78114 -71.51679 200 ft 8 kts 84°
2026-04-26 22:03 42.78120 -71.51664 202 ft 0 kts 36°
2026-04-26 22:05 42.78123 -71.51661 202 ft 4 kts 32°
2026-04-26 22:05 42.78138 -71.51649 200 ft 0 kts 33°
2026-04-26 22:06 42.78172 -71.51646 200 ft 12 kts 317°
2026-04-26 22:06 42.78223 -71.51749 202 ft 12 kts 301°
2026-04-26 22:06 42.78265 -71.51838 201 ft 10 kts 302°
2026-04-26 22:07 42.78303 -71.51917 201 ft 13 kts 302°
2026-04-26 22:07 42.78383 -71.52087 204 ft 29 kts 301°
2026-04-26 22:07 42.78503 -71.52342 203 ft 22 kts 303°
2026-04-26 22:07 42.78582 -71.52408 208 ft 11 kts 339°
2026-04-26 22:08 42.78612 -71.52407 204 ft 0 kts 30°
2026-04-26 22:09 42.78628 -71.52393 209 ft 2 kts 31°
2026-04-26 22:11 42.78639 -71.52384 205 ft 9 kts 31°
2026-04-26 22:11 42.78644 -71.52261 206 ft 31 kts 124°
2026-04-26 22:11 42.78448 -71.51838 235 ft 69 kts 125°
2026-04-26 22:11 42.78163 -71.51215 326 ft 87 kts 128°
2026-04-26 22:12 42.77815 -71.50517 504 ft 91 kts 124°
2026-04-26 22:12 42.77466 -71.49757 665 ft 95 kts 123°
2026-04-26 22:12 42.77104 -71.48969 848 ft 102 kts 130°
2026-04-26 22:12 42.76554 -71.48378 1026 ft 102 kts 149°
2026-04-26 22:13 42.75964 -71.47848 1179 ft 102 kts 144°
2026-04-26 22:13 42.75391 -71.47305 1368 ft 97 kts 147°
2026-04-26 22:13 42.74778 -71.46955 1595 ft 98 kts 158°
2026-04-26 22:13 42.74071 -71.46680 1621 ft 113 kts 165°
2026-04-26 22:14 42.73269 -71.46510 1692 ft 117 kts 174°
2026-04-26 22:14 42.72475 -71.46439 1821 ft 114 kts 168°
2026-04-26 22:14 42.71709 -71.46313 1992 ft 110 kts 169°
2026-04-26 22:14 42.70940 -71.46133 2037 ft 117 kts 167°
2026-04-26 22:15 42.70155 -71.45958 2236 ft 111 kts 167°
2026-04-26 22:15 42.69390 -71.45790 2353 ft 110 kts 168°
2026-04-26 22:15 42.68621 -71.45655 2485 ft 109 kts 169°
2026-04-26 22:15 42.67860 -71.45543 2747 ft 106 kts 174°
2026-04-26 22:16 42.67104 -71.45473 2839 ft 113 kts 174°
2026-04-26 22:16 42.66291 -71.45454 2931 ft 116 kts 176°
2026-04-26 22:16 42.65487 -71.45458 3082 ft 115 kts 178°
2026-04-26 22:16 42.64695 -71.45477 3228 ft 115 kts 177°
2026-04-26 22:17 42.63906 -71.45458 3379 ft 113 kts 178°
2026-04-26 22:17 42.63102 -71.45457 3456 ft 118 kts 177°
2026-04-26 22:17 42.62262 -71.45434 3489 ft 125 kts 178°
2026-04-26 22:17 42.61395 -71.45344 3582 ft 122 kts 172°
2026-04-26 22:18 42.60555 -71.45285 3645 ft 127 kts 183°
2026-04-26 22:18 42.59639 -71.45389 3585 ft 135 kts 181°
2026-04-26 22:18 42.58710 -71.45482 3559 ft 136 kts 184°
2026-04-26 22:18 42.57793 -71.45672 3571 ft 133 kts 187°
2026-04-26 22:19 42.56897 -71.45912 3579 ft 131 kts 189°
2026-04-26 22:19 42.56007 -71.46129 3661 ft 127 kts 187°
2026-04-26 22:19 42.55101 -71.46339 3595 ft 135 kts 188°
2026-04-26 22:19 42.54172 -71.46552 3546 ft 138 kts 187°
2026-04-26 22:20 42.53217 -71.46758 3530 ft 135 kts 187°
2026-04-26 22:20 42.52604 -71.46881 3490 ft 136 kts 185°
2026-04-26 22:20 42.51377 -71.47123 3483 ft 133 kts 187°
2026-04-26 22:20 42.50425 -71.47235 3342 ft 139 kts 176°
2026-04-26 22:21 42.49501 -71.47004 3302 ft 135 kts 158°
2026-04-26 22:21 42.48617 -71.46614 3211 ft 134 kts 162°
2026-04-26 22:21 42.47714 -71.46271 3075 ft 136 kts 162°
2026-04-26 22:21 42.46800 -71.45942 2981 ft 135 kts 162°
2026-04-26 22:22 42.45888 -71.45594 2870 ft 135 kts 161°
2026-04-26 22:22 42.44989 -71.45292 2790 ft 136 kts 165°
2026-04-26 22:22 42.44067 -71.44964 2727 ft 132 kts 159°
2026-04-26 22:22 42.43219 -71.44471 2606 ft 134 kts 153°
2026-04-26 22:23 42.42291 -71.44359 2481 ft 140 kts 187°
2026-04-26 22:23 42.41325 -71.44584 2267 ft 141 kts 184°
2026-04-26 22:23 42.40366 -71.44669 2207 ft 132 kts 181°
2026-04-26 22:23 42.39441 -71.44717 2039 ft 135 kts 177°
2026-04-26 22:24 42.38529 -71.44800 2126 ft 127 kts 181°
2026-04-26 22:24 42.37641 -71.44902 2111 ft 128 kts 182°
2026-04-26 22:24 42.36749 -71.45022 2113 ft 128 kts 183°
2026-04-26 22:24 42.35847 -71.45145 2061 ft 130 kts 180°
2026-04-26 22:25 42.34946 -71.45078 1924 ft 131 kts 168°
2026-04-26 22:25 42.34077 -71.44754 1912 ft 126 kts 156°
2026-04-26 22:25 42.33307 -71.44151 1728 ft 130 kts 138°
2026-04-26 22:25 42.32768 -71.43179 1639 ft 129 kts 118°
2026-04-26 22:26 42.32422 -71.42076 1589 ft 125 kts 110°
2026-04-26 22:26 42.32170 -71.40955 1491 ft 124 kts 101°
2026-04-26 22:26 42.32190 -71.39790 1416 ft 125 kts 84°
2026-04-26 22:26 42.32290 -71.38660 1441 ft 121 kts 87°
2026-04-26 22:27 42.32363 -71.37537 1477 ft 119 kts 86°
2026-04-26 22:27 42.32477 -71.36424 1494 ft 121 kts 83°
2026-04-26 22:27 42.32636 -71.35286 1472 ft 123 kts 80°
2026-04-26 22:27 42.32824 -71.34152 1457 ft 123 kts 79°
2026-04-26 22:28 42.33044 -71.33021 1359 ft 125 kts 78°
2026-04-26 22:28 42.33289 -71.31891 1364 ft 125 kts 76°
2026-04-26 22:28 42.33482 -71.30739 1300 ft 129 kts 80°
2026-04-26 22:28 42.33663 -71.29550 1242 ft 128 kts 79°
2026-04-26 22:29 42.33864 -71.28392 1220 ft 126 kts 81°
2026-04-26 22:29 42.33992 -71.27229 1202 ft 124 kts 84°
2026-04-26 22:29 42.34154 -71.26074 1178 ft 123 kts 78°
2026-04-26 22:29 42.34423 -71.24995 1178 ft 122 kts 72°
2026-04-26 22:30 42.34682 -71.23904 1207 ft 121 kts 79°
2026-04-26 22:30 42.34860 -71.22779 1180 ft 125 kts 83°
2026-04-26 22:30 42.34962 -71.21620 1241 ft 121 kts 86°
2026-04-26 22:30 42.35011 -71.20518 1332 ft 118 kts 79°
2026-04-26 22:31 42.35305 -71.19450 1286 ft 123 kts 68°
2026-04-26 22:31 42.35640 -71.18382 1234 ft 124 kts 75°
2026-04-26 22:31 42.35822 -71.17276 1272 ft 119 kts 87°
2026-04-26 22:31 42.35811 -71.16139 1220 ft 122 kts 95°
2026-04-26 22:32 42.35739 -71.15014 1222 ft 120 kts 97°
2026-04-26 22:32 42.35666 -71.13874 1152 ft 125 kts 96°
2026-04-26 22:32 42.35603 -71.12704 1117 ft 125 kts 98°
2026-04-26 22:32 42.35393 -71.11555 1085 ft 126 kts 109°
2026-04-26 22:33 42.35186 -71.10419 1048 ft 124 kts 92°
2026-04-26 22:33 42.35808 -71.08252 947 ft 129 kts 59°
2026-04-26 22:33 42.36434 -71.07395 944 ft 126 kts 47°
2026-04-26 22:34 42.36800 -71.06804 931 ft 123 kts 67°
2026-04-26 22:34 42.36992 -71.05678 871 ft 124 kts 86°
2026-04-26 22:34 42.36691 -71.04625 851 ft 124 kts 144°
2026-04-26 22:34 42.35912 -71.04784 1015 ft 121 kts 207°
2026-04-26 22:35 42.35154 -71.05395 906 ft 131 kts 209°
2026-04-26 22:35 42.34341 -71.05816 952 ft 122 kts 170°
2026-04-26 22:35 42.33685 -71.05189 971 ft 120 kts 122°
2026-04-26 22:35 42.33511 -71.04101 1001 ft 118 kts 96°
2026-04-26 22:36 42.33441 -71.03121 984 ft 90 kts 99°
2026-04-26 22:36 42.33629 -71.02366 760 ft 90 kts 40°
2026-04-26 22:36 42.34235 -71.02134 573 ft 90 kts 17°
2026-04-26 22:36 42.34838 -71.01920 334 ft 90 kts 23°
2026-04-26 22:37 42.35395 -71.01615 128 ft 84 kts 24°
2026-04-26 22:37 42.35885 -71.01395 21 ft 66 kts 26°
2026-04-26 22:37 42.36243 -71.01213 19 ft 45 kts 20°
2026-04-26 22:37 42.36474 -71.01104 21 ft 29 kts 18°
2026-04-26 22:38 42.36561 -71.01184 20 ft 0 kts 293°
2026-04-26 22:38 42.36561 -71.01186 20 ft 4 kts 292°
2026-04-26 22:38 42.36588 -71.01270 19 ft 11 kts 307°
2026-04-26 22:38 42.36663 -71.01259 20 ft 13 kts 17°
2026-04-26 22:39 42.36775 -71.01254 19 ft 18 kts 326°
2026-04-26 22:39 42.36860 -71.01360 20 ft 15 kts 315°
2026-04-26 22:39 42.36930 -71.01453 21 ft 14 kts 315°
2026-04-26 22:39 42.36998 -71.01551 21 ft 14 kts 315°
2026-04-26 22:40 42.37065 -71.01641 24 ft 13 kts 315°
2026-04-26 22:40 42.37130 -71.01761 24 ft 21 kts 305°
2026-04-26 22:40 42.37218 -71.01951 24 ft 24 kts 289°
2026-04-26 22:40 42.37328 -71.02123 22 ft 18 kts 314°
2026-04-26 22:41 42.37384 -71.02086 22 ft 10 kts 51°
2026-04-26 22:41 42.37405 -71.02086 22 ft 0 kts 314°